Weather History for KNQA - January, 2014

Change the Weather History Date:

Saturday, January 18, 2014

  Actual Average Record
Temperature  
Mean Temperature 37 °F -  
Max Temperature 55 °F 47 °F 62 °F (2015)
Min Temperature 19 °F 30 °F 37 °F (2015)
Degree Days  
Heating Degree Days 28    
Moisture  
Dew Point 19 °F    
Average Humidity 62    
Maximum Humidity 93    
Minimum Humidity 28    
Precipitation  
Precipitation 0.00 in - - ()
Sea Level Pressure  
Sea Level Pressure 30.07 in    
Wind  
Wind Speed 3 mph (South)    
Max Wind Speed 16 mph    
Max Gust Speed 31 mph    
Visibility 10 miles    
Events      
Averages and records for this station are not official NWS values.
T = Trace of Precipitation, MM = Missing Value Source: NWS Daily Summary

Daily Weather History Graph

Daily Weather History Graph

Search for Another Location

Airport or City:

Trip Planner

Search our weather history database for the weather conditions in past years. The results will help you decide how hot, cold, wet, or windy it might be!

Date:

Astronomy

Jan. 18, 2014 Rise Set
Actual Time 7:06 AM CST 5:13 PM CST
Civil Twilight 6:39 AM CST 5:40 PM CST
Nautical Twilight 6:08 AM CST 6:11 PM CST
Astronomical Twilight 5:37 AM CST 6:42 PM CST
Moon 7:48 PM CST (1/18) 8:13 AM CST (1/18)
Length of Visible Light 11h 01m
Length of Day
10h 06m
Waning Gibbous, 94% of the Moon is Illuminated
Jan 18
Waning Gibbous
Jan 23
Last Quarter
Jan 30
New
Feb 6
First Quarter
Feb 14
Full

Hourly Weather History & Observations

Time (CST) Temp. Windchill Dew Point Humidity Pressure Visibility Wind Dir Wind Speed Gust Speed Precip Events Conditions
12:50 AM 21.2 °F - 15.8 °F 80% 30.19 in 10.0 mi Calm Calm - N/A   Clear
1:50 AM 21.2 °F - 14.0 °F 74% 30.18 in 10.0 mi Calm Calm - N/A   Clear
2:15 AM 21.2 °F - 15.8 °F 80% 30.19 in 10.0 mi Calm Calm - N/A   Clear
2:35 AM 21.2 °F - 15.8 °F 80% 30.19 in 10.0 mi Calm Calm - N/A   Clear
2:55 AM 21.2 °F - 15.8 °F 80% 30.18 in 10.0 mi Calm Calm - N/A   Clear
3:15 AM 21.2 °F - 15.8 °F 80% 30.18 in 10.0 mi Calm Calm - N/A   Clear
3:35 AM 19.4 °F - 15.8 °F 86% 30.17 in 10.0 mi Calm Calm - N/A   Clear
3:55 AM 21.2 °F - 14.0 °F 74% 30.17 in 10.0 mi Calm Calm - N/A   Clear
4:15 AM 19.4 °F - 15.8 °F 86% 30.17 in 10.0 mi Calm Calm - N/A   Clear
4:35 AM 21.2 °F - 15.8 °F 80% 30.16 in 10.0 mi Calm Calm - N/A   Clear
4:55 AM 21.2 °F - 15.8 °F 80% 30.16 in 10.0 mi Calm Calm - N/A   Clear
5:30 AM 19.4 °F 14.3 °F 17.6 °F 93% 30.15 in 10.0 mi ESE 3.5 mph - N/A   Mostly Cloudy
5:55 AM 21.2 °F 16.4 °F 17.6 °F 86% 30.14 in 10.0 mi ESE 3.5 mph - N/A   Overcast
6:14 AM 21.2 °F 16.4 °F 17.6 °F 86% 30.14 in 10.0 mi ESE 3.5 mph - N/A   Overcast
6:55 AM 24.8 °F - 19.4 °F 80% 30.13 in 10.0 mi Calm Calm - N/A   Overcast
7:55 AM 28.4 °F 22.2 °F 15.8 °F 59% 30.11 in 10.0 mi SSE 5.8 mph - N/A   Mostly Cloudy
8:55 AM 33.8 °F 27.7 °F 12.2 °F 41% 30.10 in 10.0 mi SSE 6.9 mph - N/A   Mostly Cloudy
9:55 AM 37.4 °F 30.3 °F 15.8 °F 41% 30.07 in 10.0 mi South 10.4 mph - N/A   Mostly Cloudy
10:55 AM 41.0 °F 34.7 °F 17.6 °F 39% 30.04 in 10.0 mi South 10.4 mph - N/A   Mostly Cloudy
11:55 AM 48.2 °F - 17.6 °F 30% 29.94 in 10.0 mi South 13.8 mph - N/A   Mostly Cloudy
12:55 PM 51.8 °F - 19.4 °F 28% 29.88 in 10.0 mi SSW 16.1 mph - N/A   Mostly Cloudy
1:55 PM 53.6 °F - 24.8 °F 33% 30.02 in 10.0 mi SSW 16.1 mph - N/A   Mostly Cloudy
2:50 PM 53.6 °F - 26.6 °F 35% 29.80 in 10.0 mi South 16.1 mph 31.1 mph N/A   Mostly Cloudy
3:55 PM 55.4 °F - 28.4 °F 36% 29.83 in 10.0 mi SSW 15.0 mph - N/A   Mostly Cloudy
4:55 PM 53.6 °F - 28.4 °F 38% 29.84 in 10.0 mi SSW 11.5 mph - N/A   Mostly Cloudy
5:55 PM 53.6 °F - 28.4 °F 38% 29.85 in 10.0 mi SSW 11.5 mph - N/A   Mostly Cloudy
6:50 PM 51.8 °F - 30.2 °F 44% 29.88 in 10.0 mi West 5.8 mph - N/A   Mostly Cloudy